Wind_Speed
29 29 30 30 29 30 33 35 38 36 36 36 37 38 39 40 42 43 44 45 46 47 48 49 50 52 53 54 54 55 55 55 56 56 56 57 57 57 57 58 59 59 60 60
29 29 31 30 29 31 33 35 37 37 37 38 39 40 41 43 45 47 47 48 50 51 52 53 54 55 55 56 56 57 57 57 57 57 57 58 58 57 58 59 59 59 59 59
30 30 31 30 30 32 33 34 36 37 39 40 42 43 45 46 49 50 51 52 53 55 56 57 58 59 59 59 59 59 59 59 59 59 60 59 59 59 59 59 59 59 59 59
33 32 32 30 31 33 35 36 38 40 42 44 46 47 48 50 53 54 56 57 58 59 60 61 61 62 62 63 63 62 62 62 61 61 61 61 60 60 60 59 59 59 60 60
34 35 35 32 34 37 40 41 42 44 46 47 49 51 52 54 57 58 60 62 63 64 65 65 66 66 66 66 65 65 64 63 62 62 62 61 60 60 60 60 59 59 59 60
36 38 38 37 39 42 45 47 48 49 51 53 55 57 57 59 61 63 65 66 67 68 69 69 70 70 69 67 66 65 64 63 62 62 62 61 61 61 60 60 59 59 59 59
37 41 41 42 45 47 49 51 53 55 57 58 60 62 64 65 67 69 70 71 72 72 73 72 72 71 70 68 66 65 64 63 62 62 62 61 61 60 60 59 59 59 59 59
39 42 44 47 49 51 53 55 57 59 61 62 64 66 68 70 72 73 74 75 75 75 74 73 72 71 69 67 66 64 63 62 61 61 61 61 60 59 59 59 58 58 58 57
44 46 48 51 54 56 58 60 62 63 65 67 69 70 72 74 75 76 77 77 76 76 74 72 70 69 68 65 64 62 61 61 60 60 59 59 59 58 57 57 57 57 57 56
48 49 51 54 57 59 61 63 65 67 69 71 73 75 76 77 78 78 77 76 75 73 71 68 67 66 65 63 62 61 60 59 58 57 57 56 56 56 56 55 55 56 56 55
53 54 57 59 61 63 65 67 69 71 73 75 77 77 78 79 78 77 75 73 71 69 67 65 63 62 62 61 60 59 58 57 56 55 54 53 53 53 53 53 54 55 54 53
57 59 61 62 64 66 68 70 72 74 75 77 78 78 78 77 75 73 71 69 67 65 63 61 60 59 59 58 58 56 55 54 53 52 52 51 50 50 50 51 52 52 51 50
60 62 64 65 68 70 72 73 74 76 77 77 76 76 75 73 71 69 67 65 64 62 60 59 58 57 57 56 55 54 53 51 51 50 50 49 49 49 48 48 49 49 48 47
63 65 66 68 70 71 73 74 74 75 75 74 73 72 71 69 67 65 63 62 61 59 58 58 57 55 54 53 52 51 50 50 49 49 48 48 48 48 48 48 46 45 45 44
66 68 69 70 71 72 72 73 72 72 72 70 69 68 67 65 63 61 60 60 58 57 56 56 55 53 52 51 50 49 48 47 46 46 46 46 46 46 46 46 45 43 42 41
67 68 69 70 70 71 71 70 69 69 68 66 65 64 62 61 60 58 58 57 56 54 54 53 52 50 49 48 47 46 45 44 44 44 44 44 45 45 44 43 43 42 40 39
67 67 67 67 67 67 66 66 65 64 63 61 60 59 59 58 57 55 55 54 53 53 52 51 49 48 47 46 45 44 43 42 43 43 43 43 43 43 43 42 41 40 38 36
66 66 66 65 64 64 63 62 61 59 58 57 56 56 56 55 54 53 52 50 50 49 48 47 46 45 44 43 43 42 42 41 41 41 41 41 42 42 41 40 40 38 35 33
63 62 62 61 60 60 59 57 56 56 55 55 54 53 53 52 52 51 49 48 47 45 43 43 43 42 41 41 41 41 41 41 40 40 40 40 40 39 38 37 36 34 31 29
60 59 57 56 56 55 55 54 53 53 53 53 52 52 51 50 49 47 46 45 45 44 41 41 40 39 39 39 40 40 40 39 39 38 38 39 38 37 35 33 32 30 28 28
57 55 54 53 52 51 52 52 52 51 51 50 50 49 48 46 46 45 44 43 41 41 40 40 39 38 38 38 38 38 38 37 37 37 38 37 36 34 32 30 29 28 27 26
53 52 52 51 50 49 49 49 49 49 48 48 47 47 46 44 43 42 42 42 40 39 38 38 38 37 37 36 36 36 36 36 36 36 36 36 34 31 30 28 27 27 25 24
51 50 50 49 48 47 46 46 47 47 46 46 46 45 44 43 42 42 40 39 38 37 37 36 36 35 34 34 34 34 35 35 35 35 35 33 31 29 27 26 25 24 23 22
50 49 48 47 47 46 45 44 44 44 44 44 44 44 43 42 40 40 39 38 37 36 35 35 34 33 33 32 32 33 34 34 34 34 33 30 27 26 25 24 23 22 21 20
49 48 46 46 45 45 44 43 42 42 42 42 42 42 42 41 40 38 37 36 35 34 33 33 32 31 31 31 31 32 33 33 32 32 29 26 25 24 23 22 21 20 20 19
47 46 45 45 44 44 42 41 41 40 41 40 40 40 39 39 38 37 36 35 34 32 31 30 29 29 29 29 30 32 32 31 30 28 26 24 23 22 21 20 20 19 19 19
45 44 44 43 42 41 40 40 39 39 39 39 38 38 37 37 37 36 34 33 32 30 29 28 28 28 28 29 29 30 30 29 27 25 23 22 21 20 19 19 18 18 18 19
Wind_Direction
291 292 293 296 301 300 300 302 303 306 307 308 307 309 310 310 309 309 309 309 309 308 308 308 307 306 305 304 303 302 301 300 299 299 298 298 297 296 295 294 294 293 293 292
290 292 293 297 299 297 298 299 301 304 306 306 308 309 309 309 308 308 308 308 307 306 306 306 305 305 304 304 303 302 301 300 299 299 298 298 297 296 295 295 294 294 293 293
290 291 292 297 298 298 298 299 301 303 305 306 307 308 308 308 307 307 307 306 305 305 305 305 305 305 305 304 303 302 301 300 299 298 298 297 296 296 295 295 295 294 293 293
291 291 293 299 299 298 298 299 301 302 303 305 306 306 307 307 306 306 306 305 305 305 305 305 304 304 304 303 303 302 301 300 299 298 298 297 296 296 295 295 295 295 295 294
292 293 295 299 298 298 298 300 301 302 303 304 304 305 306 305 305 305 305 305 305 305 304 304 304 304 303 303 302 302 301 299 299 298 297 296 296 296 295 295 295 296 296 295
292 294 297 301 299 299 300 300 301 303 303 304 304 304 304 304 304 304 304 304 304 304 304 304 303 303 303 303 302 301 300 299 298 297 297 296 296 296 295 295 295 296 296 296
291 293 297 298 297 298 299 301 302 303 304 305 305 305 304 304 304 304 304 303 303 303 303 303 303 303 303 302 302 301 300 299 298 297 297 297 297 297 297 296 297 297 297 297
290 292 296 296 297 298 299 301 302 303 303 303 303 303 303 303 303 302 302 303 303 303 303 303 303 303 302 302 301 301 300 299 298 298 297 297 298 298 298 298 298 298 298 298
291 292 293 295 296 298 299 301 302 302 302 302 302 302 302 302 302 302 303 303 303 303 303 303 303 302 302 302 301 300 299 299 298 298 298 299 299 299 299 299 299 300 300 299
288 289 291 293 295 297 298 299 300 300 301 301 301 301 302 302 303 303 303 303 303 303 303 303 303 302 302 301 301 301 300 300 299 299 299 300 300 300 300 301 301 302 301 300
288 291 292 294 296 297 298 299 299 300 300 301 301 302 302 303 303 303 303 303 303 303 304 303 303 303 302 302 302 301 301 302 302 302 302 302 302 302 303 303 304 305 304 303
291 293 294 296 296 297 298 299 299 300 300 301 301 302 302 302 303 303 304 304 304 304 304 304 304 303 303 303 303 303 303 304 304 304 304 304 304 305 305 306 306 307 306 305
292 293 294 295 296 297 298 298 299 300 300 300 301 301 302 303 304 304 304 304 304 305 305 305 305 305 305 305 305 305 305 306 306 306 306 306 306 306 306 307 308 308 308 307
292 293 295 296 297 297 298 299 299 300 300 301 301 302 303 303 304 304 305 305 305 305 306 306 306 307 307 307 307 307 307 308 308 308 308 308 308 309 309 310 310 309 309 308
293 294 295 296 297 298 298 299 299 300 301 301 302 303 303 304 304 305 305 305 306 306 307 306 307 308 308 309 309 309 309 310 310 310 310 310 310 311 311 312 312 312 311 309
294 295 296 297 298 298 299 300 300 301 301 302 302 303 304 305 305 306 306 307 307 308 308 307 308 309 310 310 311 311 312 312 312 312 312 312 313 313 313 313 313 313 312 311
295 296 297 298 298 299 300 300 301 301 302 303 304 305 305 306 306 306 306 307 308 309 308 308 309 310 311 311 312 314 314 314 314 314 314 315 315 315 315 315 315 315 314 313
296 297 298 298 299 299 300 300 301 302 303 303 304 305 306 306 306 307 307 308 308 308 309 309 310 311 312 313 314 315 315 316 316 316 316 317 316 316 317 317 317 316 315 314
296 297 298 298 299 299 299 300 301 303 303 304 304 305 306 307 308 308 309 310 310 310 310 310 311 311 312 314 315 315 316 316 317 318 318 319 319 319 319 319 318 319 318 317
296 297 297 297 298 299 300 300 301 302 304 305 305 306 306 307 308 308 310 311 311 311 311 312 312 312 313 315 315 316 316 317 318 319 320 321 321 321 321 321 321 321 320 319
296 296 296 296 297 298 299 300 301 302 304 306 306 307 307 308 308 309 310 311 311 310 311 312 313 314 315 316 316 317 317 317 319 320 321 321 321 322 322 322 323 322 322 321
295 294 294 294 295 296 298 299 301 303 305 306 307 307 308 308 309 310 311 312 312 311 311 312 313 314 315 316 317 318 318 319 320 322 322 322 322 322 323 323 323 323 323 323
294 294 294 294 295 295 297 299 301 303 305 306 307 307 308 309 311 311 311 311 311 312 312 312 313 314 315 317 318 320 321 322 322 323 323 323 323 323 324 325 324 324 324 325
293 293 294 294 295 295 297 298 300 302 303 306 307 307 308 309 310 311 312 312 312 312 312 313 314 315 316 317 319 321 323 324 324 324 324 325 325 326 326 326 326 326 326 326
291 292 293 293 293 294 296 297 298 300 302 304 306 307 307 309 310 312 312 312 312 312 313 313 315 316 317 318 320 322 324 325 325 325 325 325 326 327 327 327 328 328 329 329
290 290 291 292 293 294 295 296 298 299 301 303 305 305 306 308 309 311 312 313 313 313 314 314 315 316 318 320 321 323 325 326 326 326 326 326 327 328 328 329 330 331 333 334
288 289 290 290 291 292 294 295 297 299 301 303 304 305 306 306 308 309 311 312 312 313 313 314 315 317 319 321 322 324 326 327 328 327 327 328 329 329 330 331 333 334 336 337
Height
5757 5755 5753 5751 5750 5747 5743 5739 5736 5734 5732 5729 5725 5721 5718 5713 5708 5703 5699 5694 5688 5683 5677 5671 5665 5659 5653 5646 5640 5633 5627 5620 5614 5607 5601 5595 5588 5582 5576 5570 5564 5558 5552 5547
5749 5748 5745 5744 5743 5740 5736 5733 5729 5726 5724 5720 5716 5712 5708 5703 5698 5693 5688 5683 5677 5671 5665 5659 5653 5646 5639 5633 5626 5619 5612 5606 5599 5592 5586 5579 5573 5566 5560 5554 5548 5541 5535 5529
5741 5739 5737 5738 5735 5731 5728 5725 5722 5718 5716 5711 5707 5703 5698 5693 5687 5682 5677 5671 5665 5659 5652 5645 5639 5632 5625 5618 5611 5604 5597 5590 5583 5576 5570 5563 5557 5550 5544 5537 5531 5524 5518 5512
5731 5731 5730 5732 5727 5723 5719 5717 5713 5709 5705 5701 5697 5693 5688 5682 5676 5670 5664 5658 5651 5644 5638 5631 5624 5617 5610 5602 5595 5588 5581 5574 5566 5559 5553 5546 5539 5533 5526 5520 5514 5507 5501 5495
5722 5720 5720 5722 5718 5713 5709 5706 5703 5699 5695 5691 5687 5682 5677 5670 5663 5656 5650 5643 5636 5629 5622 5615 5607 5600 5593 5586 5578 5570 5563 5556 5549 5541 5535 5529 5522 5516 5509 5503 5497 5490 5484 5477
5714 5710 5710 5712 5706 5701 5698 5695 5692 5687 5683 5678 5673 5668 5664 5656 5649 5642 5635 5627 5620 5613 5605 5598 5590 5582 5575 5568 5560 5553 5546 5539 5531 5523 5517 5511 5504 5498 5491 5485 5479 5473 5467 5460
5705 5700 5700 5699 5694 5690 5688 5684 5679 5674 5669 5664 5658 5652 5647 5639 5632 5625 5617 5610 5602 5595 5587 5579 5571 5563 5557 5549 5542 5535 5528 5521 5513 5506 5499 5492 5486 5480 5473 5467 5461 5455 5449 5442
5696 5693 5693 5686 5682 5679 5675 5671 5666 5661 5655 5650 5644 5637 5630 5623 5615 5608 5600 5592 5584 5576 5569 5560 5551 5543 5538 5531 5523 5516 5509 5502 5495 5488 5481 5475 5469 5462 5455 5449 5443 5436 5430 5424
5686 5684 5680 5674 5670 5665 5661 5657 5652 5646 5641 5634 5628 5621 5614 5606 5598 5590 5581 5573 5564 5557 5550 5542 5532 5524 5517 5512 5505 5498 5492 5485 5478 5471 5464 5457 5451 5445 5438 5431 5425 5418 5412 5405
5674 5672 5668 5663 5658 5654 5649 5644 5638 5631 5625 5617 5610 5603 5596 5587 5579 5571 5562 5553 5545 5537 5531 5524 5516 5507 5499 5493 5487 5481 5474 5468 5461 5454 5448 5441 5434 5428 5421 5415 5408 5401 5394 5388
5660 5658 5655 5651 5645 5640 5635 5628 5622 5615 5607 5599 5592 5585 5577 5569 5560 5552 5543 5535 5527 5519 5512 5506 5499 5492 5483 5476 5470 5464 5458 5451 5445 5438 5432 5426 5419 5412 5405 5399 5391 5384 5377 5370
5648 5645 5640 5636 5630 5624 5618 5612 5605 5598 5591 5583 5574 5566 5558 5550 5542 5534 5526 5518 5511 5503 5496 5489 5483 5476 5468 5461 5454 5448 5442 5436 5430 5423 5417 5411 5405 5399 5391 5384 5377 5368 5361 5354
5634 5629 5624 5619 5614 5607 5601 5595 5588 5580 5573 5565 5557 5548 5540 5533 5525 5517 5509 5501 5494 5488 5480 5473 5467 5461 5453 5446 5440 5433 5427 5421 5415 5409 5403 5397 5390 5384 5379 5372 5363 5355 5347 5340
5618 5614 5609 5603 5598 5591 5584 5577 5570 5562 5555 5547 5539 5531 5523 5516 5509 5501 5493 5486 5479 5473 5466 5459 5452 5446 5439 5432 5426 5420 5414 5408 5401 5396 5389 5383 5377 5370 5364 5357 5351 5344 5336 5328
5601 5596 5592 5586 5580 5573 5566 5559 5553 5545 5538 5530 5522 5515 5507 5501 5494 5487 5479 5472 5465 5459 5452 5445 5439 5433 5426 5419 5413 5408 5401 5395 5389 5383 5377 5370 5364 5357 5351 5344 5337 5331 5324 5317
5585 5579 5574 5568 5562 5555 5548 5542 5535 5529 5521 5514 5507 5500 5493 5486 5480 5473 5466 5458 5452 5446 5439 5432 5426 5420 5414 5407 5401 5396 5390 5383 5377 5371 5365 5359 5352 5345 5339 5332 5326 5319 5312 5306
5568 5562 5557 5551 5545 5539 5532 5525 5518 5512 5506 5499 5493 5486 5479 5473 5467 5461 5454 5447 5440 5433 5426 5419 5414 5408 5402 5396 5390 5385 5379 5373 5367 5360 5354 5348 5341 5334 5328 5321 5314 5308 5302 5296
5550 5544 5539 5534 5528 5523 5517 5510 5504 5498 5491 5485 5479 5473 5467 5460 5454 5448 5442 5435 5429 5422 5415 5408 5402 5397 5391 5385 5380 5374 5369 5363 5357 5350 5344 5337 5331 5324 5317 5310 5304 5298 5292 5287
5534 5529 5524 5518 5512 5507 5502 5496 5491 5485 5478 5472 5466 5461 5454 5448 5441 5435 5429 5423 5416 5410 5405 5399 5393 5387 5381 5376 5370 5364 5359 5353 5347 5341 5334 5328 5321 5314 5307 5301 5295 5289 5284 5279
5519 5514 5509 5503 5498 5492 5488 5483 5477 5472 5466 5460 5454 5448 5443 5436 5430 5424 5418 5412 5405 5398 5394 5388 5383 5377 5372 5367 5361 5355 5349 5344 5338 5332 5326 5319 5312 5306 5299 5293 5288 5282 5277 5273
5504 5499 5494 5490 5485 5480 5475 5469 5464 5460 5455 5448 5442 5436 5430 5425 5419 5413 5407 5402 5397 5390 5385 5379 5373 5368 5363 5358 5352 5346 5341 5335 5329 5323 5317 5311 5304 5298 5292 5287 5282 5277 5272 5267
5489 5485 5480 5476 5472 5468 5463 5457 5452 5447 5442 5437 5431 5424 5419 5414 5409 5403 5397 5391 5386 5381 5376 5370 5365 5360 5354 5349 5344 5338 5333 5327 5322 5316 5310 5303 5297 5292 5286 5281 5276 5272 5267 5263
5475 5471 5467 5462 5458 5455 5451 5446 5440 5436 5431 5426 5420 5414 5408 5403 5398 5392 5388 5383 5377 5372 5367 5361 5356 5351 5346 5341 5336 5331 5326 5320 5314 5309 5303 5297 5291 5286 5281 5276 5272 5267 5263 5259
5461 5457 5453 5449 5445 5442 5438 5435 5430 5425 5420 5415 5410 5403 5398 5393 5389 5384 5378 5373 5368 5363 5358 5353 5348 5343 5338 5334 5329 5324 5319 5313 5308 5302 5296 5291 5285 5281 5276 5272 5267 5263 5259 5255
5446 5443 5440 5436 5433 5429 5425 5422 5419 5414 5410 5405 5400 5394 5389 5383 5379 5374 5369 5364 5359 5354 5350 5345 5340 5336 5331 5327 5322 5318 5312 5307 5301 5296 5291 5286 5281 5277 5272 5268 5264 5260 5256 5252
5432 5429 5426 5423 5420 5416 5413 5410 5407 5403 5398 5394 5390 5385 5380 5375 5370 5365 5361 5356 5351 5346 5342 5338 5334 5329 5325 5321 5316 5312 5306 5301 5296 5291 5286 5282 5277 5273 5269 5265 5261 5257 5253 5249
5418 5415 5412 5410 5407 5404 5401 5398 5395 5391 5387 5383 5379 5375 5371 5366 5361 5357 5352 5348 5344 5339 5335 5331 5327 5323 5319 5315 5311 5306 5301 5296 5291 5286 5282 5278 5274 5270 5266 5262 5258 5255 5251 5247